Time,TemperatureF,DewpointF,PressureIn,WindDirection,WindDirectionDegrees,WindSpeedMPH,WindSpeedGustMPH,Humidity,HourlyPrecipIn,Conditions,Clouds,dailyrainin,SoftwareType,DateUTC
2015-05-05 00:05:00,50.0,41.7,30.10,North,0,1.6,2.2,73,0.00,,,0.00,meteobridge,2015-05-05 07:05:00,
2015-05-05 00:10:00,50.0,41.7,30.10,West,270,1.6,2.2,73,0.00,,,0.00,meteobridge,2015-05-05 07:10:00,
2015-05-05 00:15:00,50.0,41.7,30.10,East,90,1.6,2.2,73,0.00,,,0.00,meteobridge,2015-05-05 07:15:00,
2015-05-05 00:20:00,50.0,41.7,30.10,NW,315,1.6,1.6,73,0.00,,,0.00,meteobridge,2015-05-05 07:20:00,
2015-05-05 00:25:00,49.8,41.9,30.10,North,0,0.7,1.6,74,0.00,,,0.00,meteobridge,2015-05-05 07:25:00,
2015-05-05 00:30:00,49.6,42.1,30.10,North,0,0.0,1.6,75,0.00,,,0.00,meteobridge,2015-05-05 07:30:00,
2015-05-05 00:36:00,49.3,41.7,30.10,North,0,0.7,0.7,75,0.00,,,0.00,meteobridge,2015-05-05 07:36:00,
2015-05-05 00:41:00,49.1,41.5,30.11,NE,45,0.7,0.7,75,0.00,,,0.00,meteobridge,2015-05-05 07:41:00,
2015-05-05 00:46:00,48.7,41.2,30.10,NE,45,0.0,0.7,75,0.00,,,0.00,meteobridge,2015-05-05 07:46:00,
2015-05-05 00:51:00,48.6,41.0,30.10,NE,45,0.0,0.0,75,0.00,,,0.00,meteobridge,2015-05-05 07:51:00,
2015-05-05 00:56:00,48.4,41.2,30.11,NW,315,0.0,0.0,76,0.00,,,0.00,meteobridge,2015-05-05 07:56:00,
2015-05-05 01:01:00,48.2,41.0,30.10,SE,135,1.6,1.6,76,0.00,,,0.00,meteobridge,2015-05-05 08:01:00,
2015-05-05 01:07:00,48.2,41.0,30.10,SE,135,1.6,1.6,76,0.00,,,0.00,meteobridge,2015-05-05 08:07:00,
2015-05-05 01:12:00,48.0,41.5,30.11,West,270,0.7,1.6,78,0.00,,,0.00,meteobridge,2015-05-05 08:12:00,
2015-05-05 01:17:00,48.0,41.5,30.11,SW,225,2.2,3.1,78,0.00,,,0.00,meteobridge,2015-05-05 08:17:00,
2015-05-05 01:22:00,48.4,41.5,30.10,SW,225,1.6,1.6,77,0.00,,,0.00,meteobridge,2015-05-05 08:22:00,
2015-05-05 01:27:00,48.6,41.7,30.10,North,0,0.7,0.7,77,0.00,,,0.00,meteobridge,2015-05-05 08:27:00,
2015-05-05 01:32:00,48.4,41.5,30.11,East,90,0.7,0.7,77,0.00,,,0.00,meteobridge,2015-05-05 08:32:00,
2015-05-05 01:38:00,48.2,41.4,30.11,NE,45,0.0,0.0,77,0.00,,,0.00,meteobridge,2015-05-05 08:38:00,
2015-05-05 01:43:00,48.2,41.4,30.11,SE,135,0.7,2.2,77,0.00,,,0.00,meteobridge,2015-05-05 08:43:00,
2015-05-05 01:48:00,48.4,41.9,30.11,West,270,2.2,2.2,78,0.00,,,0.00,meteobridge,2015-05-05 08:48:00,
2015-05-05 01:53:00,48.7,42.3,30.11,SW,225,3.1,3.1,78,0.00,,,0.00,meteobridge,2015-05-05 08:53:00,
2015-05-05 01:58:00,49.1,42.3,30.11,SW,225,3.1,3.1,77,0.00,,,0.00,meteobridge,2015-05-05 08:58:00,
2015-05-05 02:03:00,49.3,42.4,30.11,NW,315,2.2,2.2,77,0.00,,,0.00,meteobridge,2015-05-05 09:03:00,
2015-05-05 02:09:00,49.5,42.6,30.11,South,180,0.7,1.6,77,0.00,,,0.00,meteobridge,2015-05-05 09:09:00,
2015-05-05 02:14:00,49.6,42.8,30.11,SE,135,1.6,2.2,77,0.00,,,0.00,meteobridge,2015-05-05 09:14:00,
2015-05-05 02:19:00,49.6,42.8,30.11,West,270,0.7,1.6,77,0.00,,,0.00,meteobridge,2015-05-05 09:19:00,
2015-05-05 02:24:00,49.5,42.6,30.11,SW,225,1.6,2.2,77,0.00,,,0.00,meteobridge,2015-05-05 09:24:00,
2015-05-05 02:29:00,49.5,42.6,30.11,SW,225,2.2,2.2,77,0.00,,,0.00,meteobridge,2015-05-05 09:29:00,
2015-05-05 02:34:00,49.6,42.8,30.11,South,180,1.6,2.2,77,0.00,,,0.00,meteobridge,2015-05-05 09:34:00,
2015-05-05 02:40:00,49.6,42.8,30.11,SW,225,1.6,1.6,77,0.00,,,0.00,meteobridge,2015-05-05 09:40:00,
2015-05-05 02:45:00,49.6,42.8,30.11,SW,225,1.6,1.6,77,0.00,,,0.00,meteobridge,2015-05-05 09:45:00,
2015-05-05 02:50:00,49.6,42.8,30.11,SW,225,1.6,1.6,77,0.00,,,0.00,meteobridge,2015-05-05 09:50:00,
2015-05-05 02:55:00,49.5,42.6,30.11,South,180,1.6,1.6,77,0.00,,,0.00,meteobridge,2015-05-05 09:55:00,
2015-05-05 03:00:00,49.5,42.6,30.10,SW,225,0.7,0.7,77,0.00,,,0.00,meteobridge,2015-05-05 10:00:00,
2015-05-05 03:05:00,49.5,42.6,30.11,SW,225,0.7,0.7,77,0.00,,,0.00,meteobridge,2015-05-05 10:05:00,
2015-05-05 03:11:00,49.1,42.6,30.11,SE,135,1.6,1.6,78,0.00,,,0.00,meteobridge,2015-05-05 10:11:00,
2015-05-05 03:16:00,48.9,42.4,30.11,South,180,1.6,1.6,78,0.00,,,0.00,meteobridge,2015-05-05 10:16:00,
2015-05-05 03:21:00,48.6,42.1,30.10,South,180,1.6,2.2,78,0.00,,,0.00,meteobridge,2015-05-05 10:21:00,
2015-05-05 03:26:00,48.6,42.1,30.10,SW,225,2.2,2.2,78,0.00,,,0.00,meteobridge,2015-05-05 10:26:00,
2015-05-05 03:31:00,48.4,41.9,30.10,SW,225,2.2,2.2,78,0.00,,,0.00,meteobridge,2015-05-05 10:31:00,
2015-05-05 03:37:00,48.4,41.9,30.10,SW,225,1.6,1.6,78,0.00,,,0.00,meteobridge,2015-05-05 10:37:00,
2015-05-05 03:42:00,48.2,41.7,30.10,SW,225,0.7,1.6,78,0.00,,,0.00,meteobridge,2015-05-05 10:42:00,
2015-05-05 03:47:00,48.0,41.9,30.10,SW,225,1.6,2.2,79,0.00,,,0.00,meteobridge,2015-05-05 10:47:00,
2015-05-05 03:52:00,47.8,41.9,30.11,South,180,1.6,1.6,80,0.00,,,0.00,meteobridge,2015-05-05 10:52:00,
2015-05-05 03:57:00,47.7,41.7,30.11,SW,225,2.2,2.2,80,0.00,,,0.00,meteobridge,2015-05-05 10:57:00,
2015-05-05 04:02:00,47.5,41.5,30.11,West,270,0.7,1.6,80,0.00,,,0.00,meteobridge,2015-05-05 11:02:00,
2015-05-05 04:08:00,47.3,41.4,30.11,NE,45,0.7,0.7,80,0.00,,,0.00,meteobridge,2015-05-05 11:08:00,
2015-05-05 04:13:00,46.9,41.2,30.11,NW,315,1.6,1.6,80,0.00,,,0.00,meteobridge,2015-05-05 11:13:00,
2015-05-05 04:18:00,46.6,41.0,30.11,NW,315,1.6,1.6,81,0.00,,,0.00,meteobridge,2015-05-05 11:18:00,
2015-05-05 04:23:00,46.4,40.8,30.11,West,270,0.7,0.7,81,0.00,,,0.00,meteobridge,2015-05-05 11:23:00,
2015-05-05 04:28:00,46.0,40.8,30.11,North,0,0.0,0.0,82,0.00,,,0.00,meteobridge,2015-05-05 11:28:00,
2015-05-05 04:33:00,45.9,40.6,30.11,North,0,0.0,0.0,82,0.00,,,0.00,meteobridge,2015-05-05 11:33:00,
2015-05-05 04:39:00,45.9,41.0,30.11,NE,45,0.0,0.7,83,0.00,,,0.00,meteobridge,2015-05-05 11:39:00,
2015-05-05 04:44:00,46.0,41.2,30.11,SE,135,0.7,0.7,83,0.00,,,0.00,meteobridge,2015-05-05 11:44:00,
2015-05-05 04:49:00,46.0,41.5,30.11,SE,135,0.0,0.7,84,0.00,,,0.00,meteobridge,2015-05-05 11:49:00,
2015-05-05 04:54:00,46.2,41.7,30.11,SW,225,0.0,0.0,84,0.00,,,0.00,meteobridge,2015-05-05 11:54:00,
2015-05-05 04:59:00,46.4,42.1,30.11,NE,45,0.7,1.6,85,0.00,,,0.00,meteobridge,2015-05-05 11:59:00,
2015-05-05 05:04:00,46.6,42.3,30.11,SE,135,0.7,0.7,85,0.00,,,0.00,meteobridge,2015-05-05 12:04:00,
2015-05-05 05:10:00,46.8,42.4,30.11,SE,135,0.7,0.7,85,0.00,,,0.00,meteobridge,2015-05-05 12:10:00,
2015-05-05 05:15:00,46.8,42.4,30.11,NE,45,0.0,0.7,85,0.00,,,0.00,meteobridge,2015-05-05 12:15:00,
2015-05-05 05:20:00,46.8,42.4,30.11,South,180,0.0,0.7,85,0.00,,,0.00,meteobridge,2015-05-05 12:20:00,
2015-05-05 05:25:00,46.8,42.4,30.11,East,90,0.7,0.7,85,0.00,,,0.00,meteobridge,2015-05-05 12:25:00,
2015-05-05 05:30:00,46.8,42.4,30.11,SW,225,0.0,0.0,85,0.00,,,0.00,meteobridge,2015-05-05 12:30:00,
2015-05-05 05:35:00,46.6,42.3,30.11,SW,225,0.0,0.0,85,0.00,,,0.00,meteobridge,2015-05-05 12:35:00,
2015-05-05 05:41:00,46.4,42.1,30.11,SW,225,0.0,0.0,85,0.00,,,0.00,meteobridge,2015-05-05 12:41:00,
2015-05-05 05:46:00,46.2,41.7,30.11,SW,225,0.7,0.7,84,0.00,,,0.00,meteobridge,2015-05-05 12:46:00,
2015-05-05 05:51:00,45.9,41.4,30.11,SW,225,0.0,0.0,84,0.00,,,0.00,meteobridge,2015-05-05 12:51:00,
2015-05-05 05:56:00,45.7,41.2,30.11,SW,225,0.0,0.0,84,0.00,,,0.00,meteobridge,2015-05-05 12:56:00,
2015-05-05 06:01:00,45.5,41.0,30.11,SW,225,0.0,0.0,84,0.00,,,0.00,meteobridge,2015-05-05 13:01:00,
2015-05-05 06:06:00,45.3,40.8,30.11,SW,225,0.0,0.0,84,0.00,,,0.00,meteobridge,2015-05-05 13:06:00,
2015-05-05 06:12:00,45.1,40.8,30.12,SW,225,0.0,0.7,85,0.00,,,0.00,meteobridge,2015-05-05 13:12:00,
2015-05-05 06:17:00,45.1,40.8,30.11,SW,225,0.0,0.0,85,0.00,,,0.00,meteobridge,2015-05-05 13:17:00,
2015-05-05 06:22:00,45.3,41.0,30.11,SW,225,1.6,1.6,85,0.00,,,0.00,meteobridge,2015-05-05 13:22:00,
2015-05-05 06:27:00,45.7,41.7,30.12,SW,225,0.7,2.2,86,0.00,,,0.00,meteobridge,2015-05-05 13:27:00,
2015-05-05 06:32:00,46.2,42.3,30.12,South,180,1.6,1.6,86,0.00,,,0.00,meteobridge,2015-05-05 13:32:00,
2015-05-05 06:37:00,46.6,42.6,30.12,SW,225,1.6,1.6,86,0.00,,,0.00,meteobridge,2015-05-05 13:37:00,
2015-05-05 06:43:00,46.9,43.0,30.12,SW,225,0.7,1.6,86,0.00,,,0.00,meteobridge,2015-05-05 13:43:00,
2015-05-05 06:48:00,47.1,43.2,30.12,SW,225,0.7,1.6,86,0.00,,,0.00,meteobridge,2015-05-05 13:48:00,
2015-05-05 06:53:00,47.1,43.2,30.12,SW,225,1.6,1.6,86,0.00,,,0.00,meteobridge,2015-05-05 13:53:00,
2015-05-05 06:58:00,47.3,43.3,30.12,South,180,1.6,1.6,86,0.00,,,0.00,meteobridge,2015-05-05 13:58:00,
2015-05-05 07:03:00,47.3,43.3,30.12,South,180,2.2,2.2,86,0.00,,,0.00,meteobridge,2015-05-05 14:03:00,
2015-05-05 07:08:00,47.3,43.3,30.12,SW,225,1.6,1.6,86,0.00,,,0.00,meteobridge,2015-05-05 14:08:00,
2015-05-05 07:14:00,47.3,43.0,30.13,SW,225,1.6,1.6,85,0.00,,,0.00,meteobridge,2015-05-05 14:14:00,
2015-05-05 07:19:00,47.3,43.0,30.13,SW,225,1.6,1.6,85,0.00,,,0.00,meteobridge,2015-05-05 14:19:00,
2015-05-05 07:24:00,47.7,43.3,30.13,SW,225,1.6,1.6,85,0.00,,,0.00,meteobridge,2015-05-05 14:24:00,
2015-05-05 07:29:00,48.4,44.1,30.13,SW,225,3.1,3.1,85,0.00,,,0.00,meteobridge,2015-05-05 14:29:00,
2015-05-05 07:34:00,48.7,44.1,30.13,South,180,1.6,3.1,84,0.00,,,0.00,meteobridge,2015-05-05 14:34:00,
2015-05-05 07:39:00,48.6,43.9,30.13,SW,225,0.7,1.6,84,0.00,,,0.00,meteobridge,2015-05-05 14:39:00,
2015-05-05 07:45:00,48.6,43.7,30.13,West,270,1.6,1.6,83,0.00,,,0.00,meteobridge,2015-05-05 14:45:00,
2015-05-05 07:50:00,48.6,43.3,30.14,South,180,1.6,1.6,82,0.00,,,0.00,meteobridge,2015-05-05 14:50:00,
2015-05-05 07:55:00,48.7,43.5,30.13,SW,225,1.6,1.6,82,0.00,,,0.00,meteobridge,2015-05-05 14:55:00,
2015-05-05 08:00:00,48.7,43.2,30.14,SW,225,0.7,1.6,81,0.00,,,0.00,meteobridge,2015-05-05 15:00:00,
2015-05-05 08:05:00,49.1,43.5,30.14,SW,225,0.7,0.7,81,0.00,,,0.00,meteobridge,2015-05-05 15:05:00,
2015-05-05 08:10:00,49.5,43.9,30.14,SW,225,0.7,1.6,81,0.00,,,0.00,meteobridge,2015-05-05 15:10:00,
2015-05-05 08:16:00,49.6,44.1,30.14,SW,225,1.6,2.2,81,0.00,,,0.00,meteobridge,2015-05-05 15:16:00,
2015-05-05 08:21:00,49.8,43.9,30.14,SW,225,0.7,1.6,80,0.00,,,0.00,meteobridge,2015-05-05 15:21:00,
2015-05-05 08:26:00,50.2,43.9,30.14,SE,135,1.6,2.2,79,0.00,,,0.00,meteobridge,2015-05-05 15:26:00,
2015-05-05 08:31:00,50.4,44.1,30.14,SE,135,1.6,1.6,79,0.00,,,0.00,meteobridge,2015-05-05 15:31:00,
2015-05-05 08:36:00,50.7,44.1,30.14,SE,135,1.6,1.6,78,0.00,,,0.00,meteobridge,2015-05-05 15:36:00,
2015-05-05 08:41:00,50.9,43.9,30.14,SW,225,1.6,1.6,77,0.00,,,0.00,meteobridge,2015-05-05 15:41:00,
2015-05-05 08:47:00,51.1,44.1,30.14,South,180,1.6,1.6,77,0.00,,,0.00,meteobridge,2015-05-05 15:47:00,
2015-05-05 08:52:00,51.3,44.2,30.14,NW,315,1.6,1.6,77,0.00,,,0.00,meteobridge,2015-05-05 15:52:00,
2015-05-05 08:57:00,51.6,44.2,30.14,South,180,1.6,2.2,76,0.00,,,0.00,meteobridge,2015-05-05 15:57:00,
2015-05-05 09:02:00,51.6,44.2,30.14,SW,225,1.6,1.6,76,0.00,,,0.00,meteobridge,2015-05-05 16:02:00,
2015-05-05 09:07:00,52.0,44.2,30.14,NW,315,0.7,1.6,75,0.00,,,0.00,meteobridge,2015-05-05 16:07:00,
2015-05-05 09:13:00,52.3,44.2,30.15,South,180,2.2,2.2,74,0.00,,,0.00,meteobridge,2015-05-05 16:13:00,
2015-05-05 09:18:00,52.2,44.1,30.14,SE,135,1.6,1.6,74,0.00,,,0.00,meteobridge,2015-05-05 16:18:00,
2015-05-05 09:23:00,52.7,44.2,30.14,South,180,2.2,3.1,73,0.00,,,0.00,meteobridge,2015-05-05 16:23:00,
2015-05-05 09:28:00,53.4,45.0,30.14,West,270,2.2,2.2,73,0.00,,,0.00,meteobridge,2015-05-05 16:28:00,
2015-05-05 09:33:00,54.0,45.1,30.14,SW,225,2.2,2.2,72,0.00,,,0.00,meteobridge,2015-05-05 16:33:00,
2015-05-05 09:38:00,54.7,45.5,30.14,South,180,1.6,1.6,71,0.00,,,0.00,meteobridge,2015-05-05 16:38:00,
2015-05-05 09:44:00,55.4,45.0,30.14,East,90,0.7,1.6,68,0.00,,,0.00,meteobridge,2015-05-05 16:44:00,
2015-05-05 09:49:00,56.1,45.7,30.14,South,180,3.8,3.8,68,0.00,,,0.00,meteobridge,2015-05-05 16:49:00,
2015-05-05 09:54:00,56.3,44.6,30.14,East,90,2.2,2.2,65,0.00,,,0.00,meteobridge,2015-05-05 16:54:00,
2015-05-05 09:59:00,56.8,43.9,30.14,SE,135,2.2,3.8,62,0.00,,,0.00,meteobridge,2015-05-05 16:59:00,
2015-05-05 10:04:00,56.8,43.9,30.14,South,180,1.6,3.1,62,0.00,,,0.00,meteobridge,2015-05-05 17:04:00,
2015-05-05 10:09:00,56.5,43.7,30.14,SE,135,3.1,3.1,62,0.00,,,0.00,meteobridge,2015-05-05 17:09:00,
2015-05-05 10:15:00,56.8,43.2,30.14,SW,225,1.6,2.2,60,0.00,,,0.00,meteobridge,2015-05-05 17:15:00,
2015-05-05 10:20:00,57.0,42.8,30.14,SW,225,2.2,3.1,59,0.00,,,0.00,meteobridge,2015-05-05 17:20:00,
2015-05-05 10:25:00,56.5,42.3,30.14,SW,225,2.2,2.2,59,0.00,,,0.00,meteobridge,2015-05-05 17:25:00,
2015-05-05 10:30:00,56.3,42.1,30.14,SW,225,1.6,1.6,59,0.00,,,0.00,meteobridge,2015-05-05 17:30:00,
2015-05-05 10:35:00,55.9,41.9,30.14,NE,45,0.7,3.8,59,0.00,,,0.00,meteobridge,2015-05-05 17:35:00,
2015-05-05 10:40:00,55.9,41.9,30.14,South,180,2.2,3.1,59,0.00,,,0.00,meteobridge,2015-05-05 17:40:00,
2015-05-05 10:46:00,56.1,41.9,30.14,SW,225,2.2,2.2,59,0.00,,,0.00,meteobridge,2015-05-05 17:46:00,
2015-05-05 10:51:00,56.8,41.7,30.14,NE,45,2.2,2.2,57,0.00,,,0.00,meteobridge,2015-05-05 17:51:00,
2015-05-05 10:56:00,57.7,42.6,30.14,South,180,2.2,2.2,57,0.00,,,0.00,meteobridge,2015-05-05 17:56:00,
2015-05-05 11:01:00,59.5,42.8,30.14,East,90,2.2,3.1,54,0.00,,,0.00,meteobridge,2015-05-05 18:01:00,
2015-05-05 11:06:00,60.1,41.9,30.14,SE,135,2.2,3.1,51,0.00,,,0.00,meteobridge,2015-05-05 18:06:00,
2015-05-05 11:11:00,61.0,42.3,30.14,SW,225,3.1,3.1,50,0.00,,,0.00,meteobridge,2015-05-05 18:11:00,
2015-05-05 11:17:00,61.2,41.9,30.14,South,180,3.1,3.1,49,0.00,,,0.00,meteobridge,2015-05-05 18:17:00,
2015-05-05 11:22:00,61.2,41.9,30.14,South,180,3.1,3.1,49,0.00,,,0.00,meteobridge,2015-05-05 18:22:00,
2015-05-05 11:27:00,61.5,41.2,30.13,SE,135,1.6,2.2,47,0.00,,,0.00,meteobridge,2015-05-05 18:27:00,
2015-05-05 11:32:00,61.7,41.2,30.14,SW,225,3.8,3.8,47,0.00,,,0.00,meteobridge,2015-05-05 18:32:00,
2015-05-05 11:37:00,60.8,40.5,30.14,West,270,2.2,2.2,47,0.00,,,0.00,meteobridge,2015-05-05 18:37:00,
2015-05-05 11:42:00,61.5,41.7,30.14,NW,315,2.2,3.1,48,0.00,,,0.00,meteobridge,2015-05-05 18:42:00,
2015-05-05 11:48:00,62.8,41.7,30.14,SW,225,3.1,3.8,46,0.00,,,0.00,meteobridge,2015-05-05 18:48:00,
2015-05-05 11:53:00,63.1,40.3,30.14,SE,135,4.5,4.5,43,0.00,,,0.00,meteobridge,2015-05-05 18:53:00,
2015-05-05 11:58:00,63.9,41.0,30.14,South,180,3.1,3.8,43,0.00,,,0.00,meteobridge,2015-05-05 18:58:00,
2015-05-05 12:03:00,63.3,41.0,30.13,SW,225,3.1,3.1,44,0.00,,,0.00,meteobridge,2015-05-05 19:03:00,
2015-05-05 12:08:00,62.4,42.4,30.13,SSW,203,2.2,3.8,48,0.00,,,0.00,meteobridge,2015-05-05 19:08:00,
2015-05-05 12:13:00,61.7,41.9,30.14,SW,225,2.2,2.2,48,0.00,,,0.00,meteobridge,2015-05-05 19:13:00,
2015-05-05 12:19:00,61.5,41.7,30.14,South,180,1.6,1.6,48,0.00,,,0.00,meteobridge,2015-05-05 19:19:00,
2015-05-05 12:24:00,61.7,42.3,30.13,SE,135,3.1,3.1,49,0.00,,,0.00,meteobridge,2015-05-05 19:24:00,
2015-05-05 12:29:00,62.1,41.5,30.13,SW,225,2.2,2.2,47,0.00,,,0.00,meteobridge,2015-05-05 19:29:00,
2015-05-05 12:34:00,62.8,41.7,30.13,South,180,3.1,3.1,46,0.00,,,0.00,meteobridge,2015-05-05 19:34:00,
2015-05-05 12:39:00,63.5,43.0,30.13,South,180,3.1,3.1,47,0.00,,,0.00,meteobridge,2015-05-05 19:39:00,
2015-05-05 12:44:00,63.5,40.6,30.13,SE,135,3.1,3.1,43,0.00,,,0.00,meteobridge,2015-05-05 19:44:00,
2015-05-05 12:50:00,62.8,41.2,30.13,SW,225,2.2,2.2,45,0.00,,,0.00,meteobridge,2015-05-05 19:50:00,
2015-05-05 12:55:00,61.9,40.8,30.13,SE,135,0.7,3.1,46,0.00,,,0.00,meteobridge,2015-05-05 19:55:00,
2015-05-05 13:00:00,61.5,41.2,30.13,East,90,0.7,1.6,47,0.00,,,0.00,meteobridge,2015-05-05 20:00:00,
2015-05-05 13:05:00,61.5,41.2,30.12,East,90,0.7,0.7,47,0.00,,,0.00,meteobridge,2015-05-05 20:05:00,
2015-05-05 13:10:00,60.3,41.0,30.12,SE,135,3.8,4.5,49,0.00,,,0.00,meteobridge,2015-05-05 20:10:00,
2015-05-05 13:15:00,59.2,42.1,30.12,North,0,2.2,3.8,53,0.00,,,0.00,meteobridge,2015-05-05 20:15:00,
2015-05-05 13:21:00,58.8,42.6,30.12,NE,45,3.1,3.1,55,0.00,,,0.00,meteobridge,2015-05-05 20:21:00,
2015-05-05 13:26:00,58.6,42.1,30.12,NE,45,2.2,2.2,54,0.00,,,0.00,meteobridge,2015-05-05 20:26:00,
2015-05-05 13:31:00,59.0,41.9,30.11,South,180,3.1,3.1,53,0.00,,,0.00,meteobridge,2015-05-05 20:31:00,
2015-05-05 13:36:00,60.6,43.0,30.12,SW,225,1.6,1.6,52,0.00,,,0.00,meteobridge,2015-05-05 20:36:00,
2015-05-05 13:41:00,62.4,41.9,30.12,West,270,3.8,3.8,47,0.00,,,0.00,meteobridge,2015-05-05 20:41:00,
2015-05-05 13:46:00,62.6,42.1,30.11,NE,45,3.1,3.1,47,0.00,,,0.00,meteobridge,2015-05-05 20:46:00,
2015-05-05 13:52:00,63.7,42.4,30.11,South,180,3.1,3.1,46,0.00,,,0.00,meteobridge,2015-05-05 20:52:00,
2015-05-05 13:57:00,64.2,41.2,30.11,SE,135,4.5,4.5,43,0.00,,,0.00,meteobridge,2015-05-05 20:57:00,
2015-05-05 14:02:00,64.4,42.6,30.11,South,180,1.6,2.2,45,0.00,,,0.00,meteobridge,2015-05-05 21:02:00,
2015-05-05 14:07:00,64.4,40.8,30.11,NW,315,1.6,1.6,42,0.00,,,0.00,meteobridge,2015-05-05 21:07:00,
2015-05-05 14:12:00,63.1,40.3,30.11,NW,315,2.2,2.2,43,0.00,,,0.00,meteobridge,2015-05-05 21:12:00,
2015-05-05 14:17:00,61.5,43.2,30.11,NW,315,3.1,3.8,51,0.00,,,0.00,meteobridge,2015-05-05 21:17:00,
2015-05-05 14:23:00,60.3,43.0,30.11,NE,45,2.2,2.2,53,0.00,,,0.00,meteobridge,2015-05-05 21:23:00,
2015-05-05 14:28:00,59.7,42.1,30.11,NNE,23,3.1,3.1,52,0.00,,,0.00,meteobridge,2015-05-05 21:28:00,
2015-05-05 14:33:00,59.5,40.8,30.11,NE,45,2.2,3.1,50,0.00,,,0.00,meteobridge,2015-05-05 21:33:00,
2015-05-05 14:38:00,59.4,39.7,30.11,NE,45,1.6,1.6,48,0.00,,,0.00,meteobridge,2015-05-05 21:38:00,
2015-05-05 14:43:00,59.5,39.9,30.10,NE,45,1.6,2.2,48,0.00,,,0.00,meteobridge,2015-05-05 21:43:00,
2015-05-05 14:49:00,60.1,40.3,30.10,North,0,1.6,2.2,48,0.00,,,0.00,meteobridge,2015-05-05 21:49:00,
2015-05-05 14:54:00,60.4,39.6,30.10,North,0,3.1,3.1,46,0.00,,,0.00,meteobridge,2015-05-05 21:54:00,
2015-05-05 14:59:00,60.4,41.7,30.10,North,0,1.6,2.2,50,0.00,,,0.00,meteobridge,2015-05-05 21:59:00,
2015-05-05 15:04:00,60.4,41.7,30.10,North,0,1.6,1.6,50,0.00,,,0.00,meteobridge,2015-05-05 22:04:00,
2015-05-05 15:09:00,59.9,42.3,30.10,NE,45,3.1,3.1,52,0.00,,,0.00,meteobridge,2015-05-05 22:09:00,
2015-05-05 15:14:00,59.9,42.3,30.10,NE,45,2.2,3.1,52,0.00,,,0.00,meteobridge,2015-05-05 22:14:00,
2015-05-05 15:20:00,60.1,40.8,30.10,West,270,2.2,2.2,49,0.00,,,0.00,meteobridge,2015-05-05 22:20:00,
2015-05-05 15:25:00,60.6,41.9,30.10,North,0,3.1,4.5,50,0.00,,,0.00,meteobridge,2015-05-05 22:25:00,
2015-05-05 15:30:00,60.8,39.9,30.09,North,0,2.2,3.8,46,0.00,,,0.00,meteobridge,2015-05-05 22:30:00,
2015-05-05 15:35:00,60.6,41.9,30.09,NE,45,3.1,3.1,50,0.00,,,0.00,meteobridge,2015-05-05 22:35:00,
2015-05-05 15:40:00,60.6,40.8,30.09,NW,315,3.1,3.1,48,0.00,,,0.00,meteobridge,2015-05-05 22:40:00,
2015-05-05 15:45:00,61.0,40.6,30.09,South,180,2.2,3.1,47,0.00,,,0.00,meteobridge,2015-05-05 22:45:00,
2015-05-05 15:51:00,61.3,40.5,30.09,North,0,2.2,3.1,46,0.00,,,0.00,meteobridge,2015-05-05 22:51:00,
2015-05-05 15:56:00,61.3,40.5,30.09,South,180,1.6,1.6,46,0.00,,,0.00,meteobridge,2015-05-05 22:56:00,
2015-05-05 16:01:00,61.3,40.5,30.08,NE,45,2.2,2.2,46,0.00,,,0.00,meteobridge,2015-05-05 23:01:00,
2015-05-05 16:06:00,61.3,40.5,30.09,SE,135,0.7,0.7,46,0.00,,,0.00,meteobridge,2015-05-05 23:06:00,
2015-05-05 16:11:00,61.5,40.5,30.08,SW,225,1.6,2.2,46,0.00,,,0.00,meteobridge,2015-05-05 23:11:00,
2015-05-05 16:16:00,61.9,40.8,30.08,SE,135,3.1,3.1,46,0.00,,,0.00,meteobridge,2015-05-05 23:16:00,
2015-05-05 16:22:00,62.4,41.4,30.08,NE,45,3.8,3.8,46,0.00,,,0.00,meteobridge,2015-05-05 23:22:00,
2015-05-05 16:27:00,62.8,39.9,30.08,North,0,2.2,3.1,43,0.00,,,0.00,meteobridge,2015-05-05 23:27:00,
2015-05-05 16:32:00,62.6,39.7,30.07,NE,45,4.5,8.3,43,0.00,,,0.00,meteobridge,2015-05-05 23:32:00,
2015-05-05 16:37:00,62.2,40.6,30.07,NE,45,3.8,5.4,45,0.00,,,0.00,meteobridge,2015-05-05 23:37:00,
2015-05-05 16:42:00,61.5,39.4,30.07,North,0,3.1,7.6,44,0.00,,,0.00,meteobridge,2015-05-05 23:42:00,
2015-05-05 16:47:00,61.0,39.6,30.07,NE,45,5.4,5.4,45,0.00,,,0.00,meteobridge,2015-05-05 23:47:00,
2015-05-05 16:53:00,60.6,39.7,30.07,NE,45,5.4,5.4,46,0.00,,,0.00,meteobridge,2015-05-05 23:53:00,
2015-05-05 16:58:00,60.6,40.3,30.07,NE,45,3.8,4.5,47,0.00,,,0.00,meteobridge,2015-05-05 23:58:00,
2015-05-05 17:03:00,60.4,40.1,30.07,East,90,4.5,4.5,47,0.00,,,0.00,meteobridge,2015-05-06 00:03:00,
2015-05-05 17:08:00,60.6,40.8,30.07,NE,45,3.8,4.5,48,0.00,,,0.00,meteobridge,2015-05-06 00:08:00,
2015-05-05 17:13:00,60.6,40.8,30.07,East,90,3.1,3.1,48,0.00,,,0.00,meteobridge,2015-05-06 00:13:00,
2015-05-05 17:18:00,60.6,42.4,30.07,NW,315,3.1,3.1,51,0.00,,,0.00,meteobridge,2015-05-06 00:18:00,
2015-05-05 17:24:00,60.4,40.6,30.07,NE,45,0.7,1.6,48,0.00,,,0.00,meteobridge,2015-05-06 00:24:00,
2015-05-05 17:29:00,60.4,41.2,30.07,North,0,1.6,1.6,49,0.00,,,0.00,meteobridge,2015-05-06 00:29:00,
2015-05-05 17:34:00,60.4,41.2,30.07,North,0,2.2,2.2,49,0.00,,,0.00,meteobridge,2015-05-06 00:34:00,
2015-05-05 17:39:00,60.4,41.2,30.07,North,0,1.6,1.6,49,0.00,,,0.00,meteobridge,2015-05-06 00:39:00,
2015-05-05 17:44:00,60.4,42.8,30.07,North,0,1.6,1.6,52,0.00,,,0.00,meteobridge,2015-05-06 00:44:00,
2015-05-05 17:49:00,60.3,41.0,30.07,North,0,3.8,3.8,49,0.00,,,0.00,meteobridge,2015-05-06 00:49:00,
2015-05-05 17:55:00,60.3,40.5,30.07,West,270,0.7,2.2,48,0.00,,,0.00,meteobridge,2015-05-06 00:55:00,
2015-05-05 18:00:00,60.3,41.5,30.07,ENE,68,3.1,3.1,50,0.00,,,0.00,meteobridge,2015-05-06 01:00:00,